ASX360 LIRF-EKCH

Flight info

Callsign ASX360
Flight time 1h 59m
Altitude 38000
Route SOVAN DCT AMTEL DCT NUKNI DCT SUMIR DCT BRENO DCT KONIN DCT EXITI DCT EMBOX M726 ROSOK Q296 MONAK
Aircraft A20N/M-SDE2E3FGHIJ1RWXY/LB1

Departure

Time 2026-05-05 15:24
Airport Rome–Fiumicino Leonardo da Vinci International Airport (LIRF)

Arrival

Time 2026-05-05 17:23
Airport Copenhagen Kastrup Airport (EKCH)
Time Latitude Longitude Altitude Speed Heading
2026-05-05 15:08 41.79768 12.25669 15 ft 0 kts 294°
2026-05-05 15:16 41.79761 12.25691 99 ft 4 kts 295°
2026-05-05 15:16 41.79752 12.25716 17 ft 4 kts 319°
2026-05-05 15:16 41.79732 12.25721 16 ft 3 kts 25°
2026-05-05 15:17 41.79744 12.25729 15 ft 4 kts 25°
2026-05-05 15:17 41.79768 12.25744 15 ft 4 kts 25°
2026-05-05 15:17 41.79793 12.25760 16 ft 3 kts 25°
2026-05-05 15:17 41.79797 12.25762 15 ft 0 kts 25°
2026-05-05 15:19 41.79800 12.25764 17 ft 2 kts 25°
2026-05-05 15:19 41.79836 12.25786 16 ft 9 kts 25°
2026-05-05 15:19 41.79910 12.25846 15 ft 15 kts 25°
2026-05-05 15:20 41.80018 12.25912 15 ft 18 kts 25°
2026-05-05 15:20 41.80143 12.25989 15 ft 21 kts 24°
2026-05-05 15:20 41.80281 12.26075 15 ft 23 kts 25°
2026-05-05 15:20 41.80432 12.26168 15 ft 24 kts 19°
2026-05-05 15:21 41.80544 12.26299 15 ft 22 kts 72°
2026-05-05 15:21 41.80599 12.26491 15 ft 23 kts 70°
2026-05-05 15:21 41.80656 12.26695 15 ft 24 kts 70°
2026-05-05 15:21 41.80713 12.26908 15 ft 25 kts 70°
2026-05-05 15:22 41.80787 12.27049 15 ft 13 kts 346°
2026-05-05 15:22 41.80883 12.27008 15 ft 16 kts 339°
2026-05-05 15:22 41.80961 12.26936 13 ft 5 kts 251°
2026-05-05 15:22 41.80960 12.26934 13 ft 0 kts 249°
2026-05-05 15:23 41.80893 12.26694 13 ft 64 kts 250°
2026-05-05 15:23 41.80650 12.25867 17 ft 124 kts 250°
2026-05-05 15:23 41.80441 12.25041 17 ft 157 kts 252°
2026-05-05 15:23 41.80055 12.23568 474 ft 160 kts 246°
2026-05-05 15:24 41.79689 12.22210 1241 ft 153 kts 244°
2026-05-05 15:24 41.79308 12.20853 1859 ft 158 kts 245°
2026-05-05 15:24 41.79178 12.19291 2283 ft 184 kts 277°
2026-05-05 15:24 41.79813 12.17690 2725 ft 209 kts 307°
2026-05-05 15:25 41.80793 12.16146 3264 ft 225 kts 307°
2026-05-05 15:25 41.81806 12.14533 4231 ft 223 kts 307°
2026-05-05 15:25 41.82784 12.12938 5192 ft 221 kts 306°
2026-05-05 15:25 41.83769 12.11325 6033 ft 226 kts 311°
2026-05-05 15:26 41.85067 12.10081 6875 ft 233 kts 335°
2026-05-05 15:26 41.86627 12.09463 7616 ft 242 kts 343°
2026-05-05 15:26 41.88336 12.08867 8100 ft 263 kts 343°
2026-05-05 15:26 41.90185 12.08197 8546 ft 285 kts 342°
2026-05-05 15:27 41.92151 12.07470 9237 ft 295 kts 342°
2026-05-05 15:27 41.94134 12.06734 10160 ft 297 kts 342°
2026-05-05 15:27 41.96206 12.06085 10725 ft 316 kts 349°
2026-05-05 15:27 41.98487 12.05827 11057 ft 340 kts 354°
2026-05-05 15:28 42.00901 12.05614 11597 ft 351 kts 354°
2026-05-05 15:28 42.03351 12.05391 12464 ft 354 kts 354°
2026-05-05 15:28 42.05834 12.05157 13302 ft 358 kts 353°
2026-05-05 15:28 42.08330 12.04915 14092 ft 362 kts 353°
2026-05-05 15:29 42.10853 12.04667 14820 ft 365 kts 353°
2026-05-05 15:29 42.13429 12.04416 15564 ft 368 kts 353°
2026-05-05 15:29 42.16012 12.04162 16275 ft 372 kts 353°
2026-05-05 15:29 42.18565 12.03877 16984 ft 374 kts 349°
2026-05-05 15:30 42.21144 12.03301 17690 ft 376 kts 347°
2026-05-05 15:30 42.23743 12.02708 18361 ft 380 kts 347°
2026-05-05 15:30 42.26397 12.02110 18965 ft 384 kts 347°
2026-05-05 15:30 42.29018 12.01521 19540 ft 387 kts 347°
2026-05-05 15:31 42.31680 12.00922 20136 ft 390 kts 347°
2026-05-05 15:31 42.34382 12.00313 20720 ft 394 kts 347°
2026-05-05 15:31 42.37125 11.99693 21292 ft 397 kts 347°
2026-05-05 15:31 42.39868 11.99074 21867 ft 401 kts 347°
2026-05-05 15:32 42.42629 11.98451 22437 ft 404 kts 347°
2026-05-05 15:32 42.45379 11.97830 23019 ft 407 kts 347°
2026-05-05 15:32 42.48189 11.97194 23551 ft 411 kts 347°
2026-05-05 15:32 42.51052 11.96547 24056 ft 413 kts 347°
2026-05-05 15:33 42.53892 11.95905 24557 ft 415 kts 347°
2026-05-05 15:33 42.56752 11.95258 25040 ft 417 kts 347°
2026-05-05 15:33 42.59632 11.94606 25507 ft 419 kts 346°
2026-05-05 15:33 42.62480 11.93959 25944 ft 422 kts 346°
2026-05-05 15:34 42.65424 11.93290 26410 ft 424 kts 346°
2026-05-05 15:34 42.68342 11.92627 26854 ft 426 kts 346°
2026-05-05 15:34 42.71277 11.91959 27278 ft 429 kts 346°
2026-05-05 15:34 42.74236 11.91285 27704 ft 431 kts 346°
2026-05-05 15:35 42.77197 11.90609 28086 ft 433 kts 346°
2026-05-05 15:35 42.80171 11.89909 28477 ft 434 kts 343°
2026-05-05 15:35 42.83085 11.88849 28863 ft 432 kts 336°
2026-05-05 15:35 42.85878 11.87346 29230 ft 430 kts 330°
2026-05-05 15:36 42.88533 11.85466 29589 ft 430 kts 327°
2026-05-05 15:36 42.91176 11.83524 29945 ft 432 kts 327°
2026-05-05 15:36 42.93830 11.81594 30280 ft 434 kts 327°
2026-05-05 15:36 42.96500 11.79651 30588 ft 436 kts 327°
2026-05-05 15:37 42.99177 11.77698 30888 ft 438 kts 327°
2026-05-05 15:37 43.01865 11.75730 30990 ft 439 kts 326°
2026-05-05 15:37 43.04569 11.73747 31051 ft 438 kts 326°
2026-05-05 15:38 43.10050 11.69710 31052 ft 454 kts 327°
2026-05-05 15:38 43.15593 11.65628 31052 ft 454 kts 327°
2026-05-05 15:39 43.21384 11.61967 31047 ft 463 kts 337°
2026-05-05 15:39 43.27814 11.60367 31044 ft 475 kts 351°
2026-05-05 15:40 43.34411 11.59801 31045 ft 475 kts 351°
2026-05-05 15:40 43.41015 11.59205 31043 ft 476 kts 351°
2026-05-05 15:41 43.47633 11.58615 31043 ft 477 kts 351°
2026-05-05 15:41 43.54259 11.58027 31045 ft 477 kts 351°
2026-05-05 15:42 43.60929 11.57436 31033 ft 478 kts 351°
2026-05-05 15:42 43.67618 11.56840 31019 ft 478 kts 351°
2026-05-05 15:43 43.74282 11.56246 31022 ft 479 kts 351°
2026-05-05 15:43 43.80946 11.55649 31010 ft 479 kts 351°
2026-05-05 15:44 43.87628 11.55120 31009 ft 481 kts 352°
2026-05-05 15:44 43.94290 11.54618 31009 ft 480 kts 352°
2026-05-05 15:45 44.00995 11.54102 31016 ft 482 kts 352°
2026-05-05 15:45 44.07683 11.53582 31012 ft 482 kts 352°
2026-05-05 15:46 44.13355 11.53142 31013 ft 482 kts 352°
2026-05-05 15:46 44.20028 11.52622 31002 ft 483 kts 352°
2026-05-05 15:47 44.26789 11.52095 30988 ft 483 kts 352°
2026-05-05 15:47 44.33545 11.51566 30973 ft 484 kts 352°
2026-05-05 15:48 44.40274 11.51038 30959 ft 484 kts 352°
2026-05-05 15:48 44.47055 11.50507 30949 ft 485 kts 351°
2026-05-05 15:49 44.53809 11.49973 30950 ft 486 kts 351°
2026-05-05 15:49 44.60559 11.49438 30953 ft 486 kts 351°
2026-05-05 15:50 44.67339 11.48901 30956 ft 487 kts 351°
2026-05-05 15:50 44.74111 11.48364 30965 ft 487 kts 351°
2026-05-05 15:51 44.80931 11.47821 30979 ft 488 kts 351°
2026-05-05 15:51 44.87761 11.47277 30986 ft 488 kts 352°
2026-05-05 15:52 44.94559 11.46733 30989 ft 488 kts 352°
2026-05-05 15:52 45.01376 11.46187 30986 ft 488 kts 352°
2026-05-05 15:53 45.08169 11.45640 30990 ft 489 kts 352°
2026-05-05 15:53 45.14974 11.45092 30990 ft 489 kts 352°
2026-05-05 15:54 45.21779 11.44542 30990 ft 489 kts 352°
2026-05-05 15:54 45.28587 11.43991 30999 ft 490 kts 352°
2026-05-05 15:55 45.35388 11.43439 31000 ft 490 kts 352°
2026-05-05 15:55 45.42212 11.42884 31005 ft 490 kts 352°
2026-05-05 15:56 45.49018 11.42330 31007 ft 490 kts 352°
2026-05-05 15:56 45.55749 11.41780 31007 ft 490 kts 352°
2026-05-05 15:57 45.62658 11.41213 31010 ft 490 kts 352°
2026-05-05 15:57 45.69528 11.40650 31011 ft 491 kts 352°
2026-05-05 15:58 45.76366 11.40088 31012 ft 491 kts 352°
2026-05-05 15:58 45.83173 11.39526 31014 ft 490 kts 352°
2026-05-05 15:59 45.89987 11.38964 31011 ft 490 kts 352°
2026-05-05 15:59 45.96794 11.38400 31007 ft 490 kts 352°
2026-05-05 16:00 46.03611 11.37833 31005 ft 490 kts 352°
2026-05-05 16:00 46.10469 11.37261 31006 ft 490 kts 353°
2026-05-05 16:01 46.17237 11.36698 31009 ft 490 kts 353°
2026-05-05 16:01 46.24115 11.36122 31015 ft 489 kts 352°
2026-05-05 16:02 46.31005 11.36098 30970 ft 492 kts 357°
2026-05-05 16:02 46.37863 11.36255 30966 ft 493 kts 357°
2026-05-05 16:03 46.44717 11.36410 30964 ft 493 kts 357°
2026-05-05 16:03 46.50476 11.36542 30968 ft 493 kts 357°
2026-05-05 16:04 46.57369 11.36703 30966 ft 495 kts 357°
2026-05-05 16:04 46.60816 11.36778 30852 ft 492 kts 359°
2026-05-05 16:04 46.64246 11.36852 30962 ft 493 kts 359°
2026-05-05 16:05 46.71125 11.37012 30955 ft 493 kts 359°
2026-05-05 16:05 46.78031 11.37176 30949 ft 493 kts 359°
2026-05-05 16:06 46.84913 11.37340 30930 ft 493 kts 359°
2026-05-05 16:06 46.91700 11.37502 30912 ft 493 kts 359°
2026-05-05 16:07 46.98566 11.37666 30872 ft 492 kts 359°
2026-05-05 16:07 47.05467 11.37636 30851 ft 492 kts 357°
2026-05-05 16:08 47.12294 11.37530 30839 ft 492 kts 358°
2026-05-05 16:08 47.19151 11.37452 30830 ft 490 kts 358°
2026-05-05 16:09 47.26008 11.37384 30831 ft 489 kts 358°
2026-05-05 16:09 47.32826 11.37317 30827 ft 488 kts 358°
2026-05-05 16:10 47.39621 11.37251 30829 ft 489 kts 358°
2026-05-05 16:10 47.46416 11.37186 30820 ft 488 kts 358°
2026-05-05 16:11 47.53249 11.37122 30824 ft 489 kts 358°
2026-05-05 16:12 47.66919 11.36988 30820 ft 489 kts 358°
2026-05-05 16:13 47.84017 11.36818 30822 ft 490 kts 358°
2026-05-05 16:13 47.90850 11.36858 30822 ft 490 kts 359°
2026-05-05 16:14 48.04525 11.37226 30824 ft 491 kts 359°
2026-05-05 16:15 48.18193 11.37533 30824 ft 491 kts 359°
2026-05-05 16:16 48.31851 11.37841 30823 ft 490 kts 359°
2026-05-05 16:17 48.42100 11.38073 30819 ft 490 kts 359°
2026-05-05 16:18 48.52285 11.38304 30806 ft 490 kts 359°
2026-05-05 16:19 48.62459 11.38537 30802 ft 489 kts 359°
2026-05-05 16:19 48.72681 11.38772 30802 ft 489 kts 359°
2026-05-05 16:20 48.86278 11.39086 30800 ft 489 kts 359°
2026-05-05 16:22 49.03282 11.39480 30799 ft 489 kts 358°
2026-05-05 16:23 49.16847 11.39799 30797 ft 488 kts 358°
2026-05-05 16:23 49.27040 11.40037 30799 ft 487 kts 358°
2026-05-05 16:24 49.32762 11.40172 30802 ft 487 kts 358°
2026-05-05 16:25 49.42975 11.40413 30806 ft 486 kts 358°
2026-05-05 16:25 49.53244 11.40656 30813 ft 486 kts 358°
2026-05-05 16:26 49.66816 11.40539 30803 ft 485 kts 355°
2026-05-05 16:27 49.73555 11.40353 30796 ft 485 kts 356°
2026-05-05 16:27 49.80350 11.40197 30786 ft 485 kts 356°
2026-05-05 16:28 49.87149 11.40047 30786 ft 484 kts 356°
2026-05-05 16:28 49.93906 11.39898 30779 ft 485 kts 356°
2026-05-05 16:29 50.00748 11.39746 30778 ft 485 kts 355°
2026-05-05 16:29 50.07491 11.39595 30779 ft 486 kts 355°
2026-05-05 16:30 50.14353 11.39441 30781 ft 486 kts 356°
2026-05-05 16:30 50.21164 11.39288 30784 ft 486 kts 356°
2026-05-05 16:31 50.27959 11.39134 30781 ft 487 kts 355°
2026-05-05 16:31 50.34789 11.38981 30785 ft 487 kts 356°
2026-05-05 16:32 50.41559 11.38829 30780 ft 488 kts 356°
2026-05-05 16:32 50.48343 11.38675 30785 ft 488 kts 355°
2026-05-05 16:33 50.55192 11.38518 30787 ft 489 kts 355°
2026-05-05 16:33 50.60881 11.38388 30792 ft 489 kts 355°
2026-05-05 16:34 50.67761 11.38230 30799 ft 489 kts 355°
2026-05-05 16:34 50.74612 11.38073 30804 ft 490 kts 355°
2026-05-05 16:35 50.81442 11.37916 30809 ft 491 kts 355°
2026-05-05 16:35 50.88327 11.37758 30814 ft 491 kts 355°
2026-05-05 16:36 50.95197 11.37599 30820 ft 491 kts 355°
2026-05-05 16:36 51.02049 11.37440 30826 ft 492 kts 355°
2026-05-05 16:37 51.08888 11.37280 30826 ft 492 kts 355°
2026-05-05 16:37 51.15791 11.37119 30827 ft 492 kts 355°
2026-05-05 16:38 51.22688 11.36958 30828 ft 493 kts 355°
2026-05-05 16:38 51.29607 11.36796 30833 ft 493 kts 355°
2026-05-05 16:39 51.36507 11.36632 30834 ft 493 kts 355°
2026-05-05 16:39 51.43374 11.36470 30839 ft 493 kts 355°
2026-05-05 16:40 51.50287 11.36306 30834 ft 493 kts 355°
2026-05-05 16:40 51.57165 11.36142 30835 ft 493 kts 355°
2026-05-05 16:41 51.64116 11.35976 30835 ft 493 kts 355°
2026-05-05 16:41 51.70935 11.35810 30842 ft 492 kts 354°
2026-05-05 16:42 51.77844 11.35655 30826 ft 493 kts 356°
2026-05-05 16:42 51.84725 11.37034 31144 ft 501 kts
2026-05-05 16:43 51.88209 11.37947 31401 ft 500 kts
2026-05-05 16:43 51.91642 11.38868 31665 ft 500 kts
2026-05-05 16:43 51.94998 11.39806 31924 ft 499 kts
2026-05-05 16:43 51.98455 11.40807 32178 ft 498 kts
2026-05-05 16:44 52.01825 11.41784 32437 ft 498 kts
2026-05-05 16:44 52.05249 11.42771 32690 ft 497 kts
2026-05-05 16:44 52.08675 11.43752 32943 ft 496 kts
2026-05-05 16:44 52.12066 11.44724 33699 ft 482 kts
2026-05-05 16:45 52.15257 11.45645 34491 ft 471 kts
2026-05-05 16:45 52.18531 11.46584 34932 ft 468 kts
2026-05-05 16:45 52.21728 11.47494 35224 ft 467 kts
2026-05-05 16:45 52.24971 11.48418 35518 ft 467 kts
2026-05-05 16:46 52.28147 11.49328 35795 ft 467 kts
2026-05-05 16:46 52.30306 11.49948 35978 ft 466 kts
2026-05-05 16:46 52.33484 11.50864 36243 ft 466 kts
2026-05-05 16:46 52.36724 11.51800 36509 ft 465 kts
2026-05-05 16:47 52.39915 11.52724 36769 ft 465 kts
2026-05-05 16:47 52.43121 11.53653 37010 ft 465 kts
2026-05-05 16:47 52.46340 11.54588 37262 ft 464 kts
2026-05-05 16:47 52.49523 11.55515 37495 ft 464 kts
2026-05-05 16:48 52.52756 11.56457 37730 ft 463 kts
2026-05-05 16:48 52.55922 11.57381 37862 ft 463 kts
2026-05-05 16:48 52.62260 11.59236 37870 ft 462 kts
2026-05-05 16:49 52.68589 11.61095 37872 ft 462 kts
2026-05-05 16:49 52.75009 11.62987 37870 ft 462 kts
2026-05-05 16:50 52.81335 11.64856 37874 ft 462 kts
2026-05-05 16:50 52.87683 11.66738 37878 ft 463 kts
2026-05-05 16:51 52.94072 11.68638 37882 ft 463 kts
2026-05-05 16:51 53.00417 11.70531 37891 ft 463 kts
2026-05-05 16:52 53.06764 11.72430 37892 ft 462 kts
2026-05-05 16:52 53.13136 11.74342 37898 ft 462 kts
2026-05-05 16:53 53.19468 11.76248 37899 ft 462 kts
2026-05-05 16:53 53.25790 11.78157 37532 ft 461 kts
2026-05-05 16:54 53.28996 11.79128 37005 ft 461 kts
2026-05-05 16:54 53.32160 11.80089 36473 ft 460 kts
2026-05-05 16:54 53.35284 11.81038 35964 ft 459 kts
2026-05-05 16:54 53.38450 11.82001 35459 ft 460 kts
2026-05-05 16:55 53.41608 11.82962 34960 ft 462 kts
2026-05-05 16:55 53.44821 11.83943 34520 ft 463 kts
2026-05-05 16:55 53.47993 11.84913 34051 ft 464 kts
2026-05-05 16:55 53.51176 11.85888 33521 ft 465 kts
2026-05-05 16:56 53.54355 11.86862 32992 ft 466 kts
2026-05-05 16:56 53.57565 11.87846 32459 ft 469 kts
2026-05-05 16:56 53.60779 11.88832 31935 ft 472 kts
2026-05-05 16:56 53.64057 11.89840 31416 ft 474 kts
2026-05-05 16:57 53.67320 11.90847 30918 ft 476 kts
2026-05-05 16:57 53.70585 11.91856 30426 ft 478 kts
2026-05-05 16:57 53.73889 11.92880 29932 ft 477 kts
2026-05-05 16:57 53.77132 11.93889 29365 ft 473 kts
2026-05-05 16:58 53.80373 11.94899 28799 ft 467 kts
2026-05-05 16:58 53.83538 11.95887 28258 ft 460 kts
2026-05-05 16:58 53.86676 11.96866 27707 ft 455 kts
2026-05-05 16:58 53.89827 11.97847 27192 ft 453 kts
2026-05-05 16:59 53.92920 11.98809 26673 ft 450 kts
2026-05-05 16:59 53.95982 11.99765 26168 ft 446 kts
2026-05-05 16:59 53.99031 12.00718 25671 ft 441 kts
2026-05-05 16:59 54.02083 12.01674 25176 ft 438 kts
2026-05-05 17:00 54.05068 12.02610 24694 ft 434 kts
2026-05-05 17:00 54.08012 12.03534 24225 ft 430 kts
2026-05-05 17:00 54.10950 12.04458 23765 ft 427 kts
2026-05-05 17:00 54.12870 12.05063 23452 ft 424 kts
2026-05-05 17:01 54.15770 12.05979 22905 ft 420 kts
2026-05-05 17:01 54.18625 12.06881 22371 ft 415 kts
2026-05-05 17:01 54.21471 12.07782 21840 ft 412 kts
2026-05-05 17:01 54.24273 12.08669 21320 ft 408 kts
2026-05-05 17:02 54.27054 12.09551 20809 ft 404 kts
2026-05-05 17:02 54.29810 12.10425 20311 ft 401 kts
2026-05-05 17:02 54.32583 12.11305 19812 ft 398 kts
2026-05-05 17:02 54.35289 12.12164 19328 ft 395 kts
2026-05-05 17:03 54.37994 12.13026 18849 ft 392 kts
2026-05-05 17:03 54.40665 12.13877 18379 ft 389 kts
2026-05-05 17:03 54.43310 12.14721 17861 ft 386 kts
2026-05-05 17:03 54.45940 12.15563 17336 ft 382 kts
2026-05-05 17:04 54.48542 12.16399 16939 ft 379 kts
2026-05-05 17:04 54.51123 12.17229 16652 ft 373 kts
2026-05-05 17:04 54.53641 12.18041 16265 ft 366 kts
2026-05-05 17:04 54.56120 12.18842 15873 ft 354 kts
2026-05-05 17:05 54.58499 12.19614 15495 ft 341 kts
2026-05-05 17:05 54.60780 12.20354 15122 ft 329 kts
2026-05-05 17:05 54.62999 12.21071 14768 ft 321 kts
2026-05-05 17:05 54.65186 12.21775 14409 ft 318 kts
2026-05-05 17:06 54.67361 12.22475 14050 ft 316 kts
2026-05-05 17:06 54.69515 12.23170 13690 ft 315 kts
2026-05-05 17:06 54.71669 12.23868 13293 ft 314 kts
2026-05-05 17:06 54.73798 12.24561 13020 ft 309 kts
2026-05-05 17:07 54.75916 12.25249 12764 ft 311 kts
2026-05-05 17:07 54.78041 12.25941 12503 ft 308 kts
2026-05-05 17:07 54.80140 12.26626 12238 ft 307 kts
2026-05-05 17:07 54.82240 12.27311 11988 ft 306 kts
2026-05-05 17:08 54.84329 12.27993 11733 ft 304 kts
2026-05-05 17:08 54.86433 12.28681 11479 ft 303 kts
2026-05-05 17:08 54.88496 12.29355 11227 ft 301 kts
2026-05-05 17:08 54.90555 12.30030 10980 ft 300 kts
2026-05-05 17:09 54.92575 12.30692 10734 ft 299 kts
2026-05-05 17:09 54.94571 12.31715 10492 ft 301 kts 20°
2026-05-05 17:09 54.96432 12.33502 10248 ft 302 kts 32°
2026-05-05 17:09 54.98165 12.35587 10007 ft 301 kts 32°
2026-05-05 17:10 54.99890 12.37622 9760 ft 299 kts 31°
2026-05-05 17:10 55.01617 12.39642 9489 ft 297 kts 31°
2026-05-05 17:10 55.03354 12.41661 9228 ft 295 kts 31°
2026-05-05 17:10 55.05031 12.43610 8960 ft 293 kts 31°
2026-05-05 17:11 55.06715 12.45571 8706 ft 290 kts 32°
2026-05-05 17:11 55.08400 12.47539 8434 ft 289 kts 32°
2026-05-05 17:11 55.10062 12.49483 8187 ft 286 kts 32°
2026-05-05 17:11 55.11712 12.51416 7927 ft 284 kts 32°
2026-05-05 17:12 55.13347 12.53334 7668 ft 282 kts 32°
2026-05-05 17:12 55.14972 12.55243 7420 ft 281 kts 32°
2026-05-05 17:12 55.16584 12.57138 7167 ft 278 kts 32°
2026-05-05 17:12 55.18187 12.59026 6912 ft 277 kts 32°
2026-05-05 17:13 55.19779 12.60900 6669 ft 273 kts 32°
2026-05-05 17:13 55.21345 12.62744 6437 ft 272 kts 33°
2026-05-05 17:13 55.22909 12.64586 6178 ft 269 kts 32°
2026-05-05 17:13 55.24529 12.66222 5907 ft 267 kts 27°
2026-05-05 17:14 55.26148 12.67767 5654 ft 264 kts 28°
2026-05-05 17:14 55.27755 12.69316 5393 ft 262 kts 28°
2026-05-05 17:14 55.29304 12.70814 5148 ft 262 kts 28°
2026-05-05 17:14 55.30898 12.72357 4892 ft 260 kts 28°
2026-05-05 17:15 55.32497 12.73787 4641 ft 257 kts 18°
2026-05-05 17:15 55.34265 12.74061 4374 ft 256 kts 351°
2026-05-05 17:15 55.35894 12.72816 4117 ft 259 kts 323°
2026-05-05 17:15 55.37005 12.70286 3938 ft 261 kts 296°
2026-05-05 17:16 55.37718 12.67366 3807 ft 262 kts 295°
2026-05-05 17:16 55.38434 12.64442 3679 ft 261 kts 295°
2026-05-05 17:16 55.39154 12.61528 3554 ft 260 kts 296°
2026-05-05 17:16 55.39873 12.58635 3423 ft 256 kts 296°
2026-05-05 17:17 55.40575 12.55813 3272 ft 242 kts 296°
2026-05-05 17:17 55.41223 12.53193 3138 ft 221 kts 296°
2026-05-05 17:17 55.41929 12.50773 3022 ft 225 kts 306°
2026-05-05 17:17 55.42914 12.48670 2887 ft 222 kts 315°
2026-05-05 17:18 55.43950 12.46644 2767 ft 222 kts 314°
2026-05-05 17:18 55.44974 12.44603 2614 ft 222 kts 314°
2026-05-05 17:18 55.46193 12.43112 2508 ft 216 kts 348°
2026-05-05 17:18 55.47609 12.43303 2404 ft 194 kts 21°
2026-05-05 17:19 55.48735 12.44413 2303 ft 180 kts 34°
2026-05-05 17:19 55.49645 12.45657 2271 ft 153 kts 38°
2026-05-05 17:19 55.50392 12.46773 2194 ft 135 kts 38°
2026-05-05 17:19 55.51116 12.47872 2128 ft 136 kts 39°
2026-05-05 17:20 55.51828 12.48968 1962 ft 135 kts 38°
2026-05-05 17:20 55.52532 12.50051 1812 ft 134 kts 38°
2026-05-05 17:20 55.53233 12.51131 1639 ft 134 kts 39°
2026-05-05 17:20 55.53938 12.52216 1472 ft 133 kts 39°
2026-05-05 17:21 55.54627 12.53283 1281 ft 132 kts 39°
2026-05-05 17:21 55.55320 12.54338 1095 ft 134 kts 38°
2026-05-05 17:21 55.56028 12.55410 906 ft 132 kts 39°
2026-05-05 17:22 55.57392 12.57561 532 ft 134 kts 38°
2026-05-05 17:22 55.58102 12.58637 369 ft 135 kts 38°
2026-05-05 17:22 55.58790 12.59699 170 ft 130 kts 38°
2026-05-05 17:22 55.59474 12.60748 35 ft 129 kts 37°
2026-05-05 17:23 55.60088 12.61689 28 ft 97 kts 39°
2026-05-05 17:23 55.60440 12.62220 24 ft 25 kts 39°
2026-05-05 17:23 55.60549 12.62311 27 ft 17 kts 17°
2026-05-05 17:23 55.60667 12.62363 25 ft 19 kts
2026-05-05 17:24 55.60800 12.62411 24 ft 20 kts 19°
2026-05-05 17:24 55.60907 12.62573 25 ft 21 kts 42°
2026-05-05 17:24 55.61021 12.62750 24 ft 22 kts 40°
2026-05-05 17:24 55.61142 12.62935 26 ft 23 kts 46°
2026-05-05 17:25 55.61265 12.63129 28 ft 24 kts 40°
2026-05-05 17:25 55.61350 12.63257 26 ft 25 kts 41°
2026-05-05 17:25 55.61527 12.63529 26 ft 26 kts 41°
2026-05-05 17:25 55.61663 12.63745 26 ft 26 kts 40°
2026-05-05 17:26 55.61803 12.63963 26 ft 27 kts 41°
2026-05-05 17:26 55.61963 12.64145 23 ft 28 kts 24°
2026-05-05 17:26 55.62138 12.64292 24 ft 28 kts 24°
2026-05-05 17:26 55.62314 12.64411 25 ft 25 kts 14°
2026-05-05 17:27 55.62481 12.64480 23 ft 24 kts 355°
2026-05-05 17:27 55.62542 12.64360 23 ft 12 kts 302°
2026-05-05 17:27 55.62592 12.64224 26 ft 15 kts 303°
2026-05-05 17:27 55.62639 12.64104 25 ft 0 kts 317°
2026-05-05 17:28 55.62641 12.64104 25 ft 1 kts 338°
2026-05-05 17:28 55.62658 12.64114 23 ft 5 kts 27°
2026-05-05 17:28 55.62690 12.64152 24 ft 7 kts 32°
2026-05-05 17:28 55.62699 12.64161 25 ft 2 kts 32°
2026-05-05 17:29 55.62704 12.64167 26 ft 0 kts 32°
2026-05-05 17:29 55.62704 12.64168 26 ft 0 kts 32°
2026-05-05 17:36 55.62704 12.64167 26 ft 0 kts 32°